Weather History for CWPR - October, 2012

Change the Weather History Date:

Saturday, October 6, 2012

  Actual Average Record
Temperature  
Mean Temperature 46 °F -  
Max Temperature 68 °F - - ()
Min Temperature 24 °F - - ()
Degree Days  
Heating Degree Days 19    
Moisture  
Dew Point 26 °F    
Average Humidity 52    
Maximum Humidity 81    
Minimum Humidity 15    
Precipitation  
Precipitation 0.00 in - - ()
Sea Level Pressure  
Sea Level Pressure 30.38 in    
Wind  
Wind Speed 0 mph ()    
Max Wind Speed 4 mph    
Max Gust Speed -    
T = Trace of Precipitation, MM = Missing Value Source: Averaged Metar Reports

Daily Weather History Graph

Daily Weather History Graph

Search for Another Location

Airport or City:

Trip Planner

Search our weather history database for the weather conditions in past years. The results will help you decide how hot, cold, wet, or windy it might be!

Date:

Astronomy

Oct. 06, 2012 Rise Set
Actual Time 7:10 AM PDT 6:28 PM PDT
Civil Twilight 6:38 AM PDT 7:00 PM PDT
Nautical Twilight 6:01 AM PDT 7:37 PM PDT
Astronomical Twilight 5:23 AM PDT 8:14 PM PDT
Moon 10:24 PM PDT (10/6) 1:33 PM PDT (10/6)
Length of Visible Light 12h 22m
Length of Day
11h 18m
Waning Gibbous, 64% of the Moon is Illuminated
Oct 6
Waning Gibbous
Oct 8
Last Quarter
Oct 15
New
Oct 21
First Quarter
Oct 29
Full

Hourly Weather History & Observations

Time (PDT) Temp. Dew Point Humidity Pressure Visibility Wind Dir Wind Speed Gust Speed Precip Events Conditions
12:00 AM 35.6 °F 22.1 °F 58% 30.42 in - Calm Calm - N/A   Unknown
1:00 AM 33.3 °F 21.7 °F 63% 30.44 in - Calm Calm - N/A   Unknown
2:00 AM 30.6 °F 21.0 °F 68% 30.45 in - Calm Calm - N/A   Unknown
3:00 AM 30.0 °F 21.2 °F 70% 30.45 in - Calm Calm - N/A   Unknown
4:00 AM 27.9 °F 20.7 °F 74% 30.46 in - Calm Calm - N/A   Unknown
5:00 AM 27 °F 21 °F 70% 30.48 in - Calm Calm - -  
5:00 AM 27.1 °F 21.0 °F 78% 30.48 in - Calm Calm - N/A   Unknown
6:00 AM 26.8 °F 20.7 °F 78% 30.49 in - Calm Calm - N/A   Unknown
7:00 AM 25.3 °F 20.1 °F 81% 30.49 in - Calm Calm - N/A   Unknown
8:00 AM 28.0 °F 21.6 °F 77% 30.51 in - Calm Calm - N/A   Unknown
9:00 AM 33.6 °F 22.8 °F 65% 30.51 in - Calm Calm - N/A   Unknown
10:00 AM 36.7 °F 22.6 °F 57% 30.49 in - Calm Calm - N/A   Unknown
11:00 AM 43 °F 23 °F 32% 30.46 in - Calm Calm - -  
11:00 AM 42.8 °F 23.2 °F 46% 30.46 in - Calm Calm - N/A   Unknown
12:00 PM 48.9 °F 24.1 °F 38% 30.42 in - SE 1.2 mph - N/A   Unknown
1:00 PM 54.9 °F 25.7 °F 32% 30.38 in - Calm Calm - N/A   Unknown
2:00 PM 59.4 °F 27.1 °F 29% 30.33 in - Calm Calm - N/A   Unknown
3:00 PM 64.4 °F 29.5 °F 27% 30.30 in - Calm Calm - N/A   Unknown
4:00 PM 66.4 °F 30.0 °F 26% 30.27 in - Calm Calm - N/A   Unknown
5:00 PM 67 °F 31 °F 15% 30.25 in - Calm Calm - -  
5:00 PM 67.1 °F 30.7 °F 26% 30.25 in - Calm Calm - N/A   Unknown
6:00 PM 59.9 °F 30.9 °F 33% 30.25 in - WNW 3.5 mph - N/A   Unknown
7:00 PM 55.4 °F 31.8 °F 41% 30.25 in - Calm Calm - N/A   Unknown
8:00 PM 52.2 °F 31.3 °F 45% 30.26 in - Calm Calm - N/A   Unknown
9:00 PM 46.8 °F 30.7 °F 54% 30.27 in - Calm Calm - N/A   Unknown
10:00 PM 44.4 °F 31.1 °F 60% 30.27 in - Calm Calm - N/A   Unknown
11:00 PM 42 °F 30 °F 51% 30.27 in - Calm Calm - -  
11:00 PM 41.7 °F 30.0 °F 63% 30.27 in - Calm Calm - N/A   Unknown